QPF
0.09 0.09 0.09 0.10 0.09 0.07 0.05 0.03 0.02 0.02 0.01 0.02 0.01 0.01 0.00 0.00 0.00 0.00 0.00 0.00 0.00 0.00 0.00 0.00 0.00 0.00 0.00 0.00 0.00 0.00 0.00 0.00 0.00 0.00 0.00 0.00 0.00 0.00 0.00 0.00 0.00 0.00 0.00
0.05 0.05 0.05 0.05 0.04 0.04 0.03 0.02 0.02 0.02 0.02 0.01 0.01 0.01 0.01 0.01 0.01 0.01 0.00 0.00 0.00 0.00 0.00 0.00 0.00 0.00 0.00 0.00 0.00 0.00 0.00 0.00 0.00 0.00 0.00 0.00 0.00 0.00 0.00 0.00 0.00 0.00 0.00
0.03 0.03 0.03 0.03 0.02 0.03 0.03 0.03 0.03 0.03 0.02 0.02 0.01 0.01 0.01 0.01 0.01 0.00 0.00 0.00 0.00 0.00 0.00 0.00 0.00 0.00 0.00 0.00 0.00 0.00 0.00 0.00 0.00 0.00 0.00 0.00 0.00 0.00 0.00 0.00 0.00 0.00 0.00
0.03 0.03 0.03 0.03 0.03 0.03 0.03 0.03 0.02 0.02 0.02 0.02 0.01 0.01 0.01 0.00 0.00 0.00 0.00 0.00 0.00 0.00 0.00 0.00 0.00 0.00 0.00 0.00 0.00 0.00 0.00 0.00 0.00 0.00 0.00 0.00 0.00 0.00 0.00 0.00 0.00 0.00 0.00
0.06 0.05 0.04 0.03 0.03 0.03 0.03 0.02 0.02 0.01 0.01 0.01 0.01 0.00 0.00 0.00 0.00 0.00 0.00 0.00 0.00 0.00 0.00 0.00 0.00 0.00 0.00 0.00 0.00 0.00 0.00 0.00 0.00 0.00 0.00 0.00 0.00 0.00 0.01 0.01 0.01 0.01 0.00
0.09 0.07 0.06 0.05 0.04 0.03 0.02 0.01 0.01 0.01 0.01 0.01 0.00 0.00 0.00 0.00 0.00 0.00 0.00 0.00 0.00 0.00 0.00 0.00 0.00 0.00 0.00 0.00 0.00 0.00 0.00 0.00 0.00 0.00 0.00 0.01 0.01 0.01 0.01 0.02 0.02 0.02 0.01
0.12 0.10 0.07 0.05 0.04 0.02 0.01 0.01 0.01 0.01 0.01 0.00 0.00 0.00 0.00 0.00 0.00 0.00 0.00 0.00 0.00 0.00 0.00 0.00 0.00 0.00 0.00 0.00 0.00 0.00 0.00 0.00 0.00 0.01 0.01 0.01 0.01 0.01 0.02 0.02 0.02 0.02 0.01
0.08 0.06 0.05 0.04 0.03 0.02 0.02 0.01 0.01 0.01 0.01 0.00 0.00 0.00 0.00 0.00 0.00 0.00 0.00 0.00 0.00 0.00 0.00 0.00 0.00 0.00 0.00 0.00 0.00 0.00 0.00 0.00 0.00 0.01 0.01 0.01 0.01 0.02 0.02 0.02 0.01 0.01 0.01
0.02 0.02 0.02 0.02 0.01 0.01 0.01 0.01 0.01 0.00 0.00 0.00 0.00 0.00 0.00 0.00 0.00 0.00 0.00 0.00 0.00 0.00 0.00 0.00 0.00 0.00 0.00 0.00 0.00 0.00 0.00 0.00 0.00 0.00 0.00 0.01 0.01 0.02 0.02 0.01 0.01 0.02 0.02
0.01 0.01 0.01 0.00 0.00 0.00 0.01 0.00 0.00 0.00 0.00 0.00 0.00 0.00 0.00 0.00 0.00 0.00 0.00 0.00 0.00 0.00 0.00 0.00 0.00 0.00 0.00 0.00 0.00 0.00 0.00 0.00 0.00 0.00 0.00 0.01 0.01 0.01 0.01 0.01 0.02 0.03 0.03
0.00 0.00 0.00 0.00 0.00 0.00 0.00 0.00 0.00 0.00 0.00 0.00 0.00 0.00 0.00 0.00 0.00 0.00 0.00 0.00 0.00 0.00 0.00 0.00 0.00 0.00 0.00 0.00 0.00 0.00 0.00 0.00 0.00 0.01 0.01 0.01 0.01 0.01 0.00 0.00 0.01 0.02 0.03
0.00 0.00 0.00 0.00 0.00 0.00 0.00 0.00 0.00 0.00 0.00 0.00 0.00 0.00 0.00 0.00 0.00 0.00 0.00 0.00 0.00 0.00 0.00 0.00 0.00 0.00 0.00 0.00 0.00 0.00 0.00 0.00 0.01 0.01 0.02 0.02 0.01 0.00 0.00 0.00 0.00 0.01 0.01
0.01 0.01 0.00 0.00 0.00 0.00 0.00 0.00 0.00 0.00 0.00 0.00 0.00 0.00 0.00 0.00 0.00 0.00 0.00 0.00 0.00 0.00 0.00 0.00 0.00 0.00 0.00 0.00 0.00 0.00 0.01 0.01 0.02 0.02 0.02 0.01 0.01 0.00 0.00 0.00 0.00 0.00 0.00
0.03 0.02 0.01 0.01 0.01 0.01 0.01 0.00 0.00 0.00 0.00 0.00 0.00 0.00 0.00 0.00 0.00 0.00 0.00 0.00 0.00 0.00 0.00 0.00 0.00 0.00 0.00 0.00 0.01 0.01 0.02 0.02 0.02 0.01 0.01 0.00 0.00 0.00 0.00 0.00 0.00 0.00 0.00
0.03 0.02 0.01 0.01 0.02 0.01 0.01 0.01 0.00 0.00 0.00 0.00 0.00 0.00 0.00 0.00 0.00 0.00 0.00 0.00 0.00 0.00 0.00 0.00 0.00 0.00 0.00 0.01 0.01 0.01 0.02 0.02 0.01 0.01 0.01 0.00 0.00 0.00 0.00 0.00 0.00 0.00 0.00
0.01 0.01 0.01 0.01 0.01 0.02 0.02 0.02 0.01 0.00 0.00 0.00 0.00 0.00 0.00 0.00 0.00 0.00 0.00 0.00 0.00 0.00 0.00 0.00 0.01 0.01 0.01 0.01 0.01 0.01 0.01 0.01 0.01 0.01 0.00 0.00 0.00 0.00 0.00 0.00 0.00 0.00 0.00
0.00 0.00 0.00 0.01 0.01 0.02 0.02 0.02 0.01 0.01 0.00 0.00 0.00 0.00 0.00 0.00 0.00 0.00 0.00 0.00 0.00 0.01 0.01 0.02 0.02 0.02 0.03 0.02 0.02 0.02 0.01 0.01 0.01 0.00 0.00 0.00 0.00 0.00 0.00 0.00 0.00 0.00 0.00
0.00 0.00 0.00 0.00 0.01 0.02 0.02 0.02 0.01 0.01 0.01 0.00 0.00 0.00 0.00 0.00 0.01 0.01 0.01 0.01 0.01 0.02 0.03 0.03 0.02 0.03 0.03 0.02 0.02 0.01 0.01 0.01 0.00 0.00 0.00 0.00 0.00 0.00 0.00 0.00 0.00 0.00 0.00
0.00 0.00 0.00 0.00 0.01 0.01 0.01 0.01 0.01 0.01 0.01 0.01 0.01 0.00 0.01 0.02 0.02 0.02 0.02 0.02 0.03 0.03 0.03 0.02 0.02 0.02 0.02 0.02 0.01 0.01 0.00 0.00 0.00 0.00 0.00 0.00 0.00 0.00 0.00 0.00 0.00 0.00 0.00
0.00 0.00 0.00 0.00 0.00 0.00 0.01 0.00 0.00 0.00 0.00 0.01 0.01 0.01 0.01 0.02 0.03 0.03 0.02 0.02 0.02 0.02 0.01 0.01 0.01 0.01 0.02 0.02 0.01 0.00 0.00 0.00 0.00 0.00 0.01 0.00 0.00 0.00 0.00 0.00 0.00 0.00 0.00
0.00 0.00 0.00 0.00 0.00 0.00 0.00 0.00 0.00 0.00 0.00 0.01 0.00 0.00 0.01 0.01 0.02 0.02 0.02 0.02 0.01 0.01 0.01 0.01 0.01 0.01 0.01 0.01 0.00 0.00 0.00 0.00 0.00 0.00 0.01 0.01 0.01 0.00 0.00 0.01 0.01 0.00 0.00
0.00 0.00 0.00 0.00 0.00 0.00 0.00 0.00 0.00 0.00 0.00 0.00 0.00 0.00 0.01 0.01 0.01 0.01 0.02 0.02 0.02 0.01 0.01 0.01 0.01 0.01 0.01 0.00 0.00 0.00 0.00 0.00 0.00 0.00 0.01 0.01 0.01 0.01 0.01 0.00 0.01 0.01 0.01
0.00 0.00 0.00 0.00 0.00 0.00 0.00 0.00 0.00 0.00 0.00 0.00 0.00 0.00 0.01 0.01 0.01 0.01 0.01 0.01 0.01 0.01 0.01 0.01 0.01 0.01 0.00 0.00 0.00 0.00 0.00 0.00 0.00 0.00 0.00 0.01 0.02 0.01 0.01 0.01 0.01 0.01 0.01
0.00 0.00 0.00 0.00 0.00 0.00 0.00 0.00 0.00 0.00 0.00 0.00 0.00 0.00 0.00 0.00 0.00 0.00 0.00 0.01 0.01 0.01 0.01 0.00 0.00 0.00 0.00 0.00 0.00 0.00 0.00 0.00 0.00 0.00 0.00 0.01 0.01 0.01 0.01 0.01 0.01 0.01 0.01
0.00 0.00 0.00 0.00 0.00 0.00 0.00 0.00 0.00 0.00 0.00 0.00 0.00 0.00 0.00 0.00 0.00 0.00 0.00 0.00 0.01 0.00 0.00 0.00 0.00 0.00 0.00 0.00 0.00 0.00 0.00 0.00 0.00 0.00 0.00 0.00 0.00 0.00 0.00 0.00 0.00 0.00 0.01
0.00 0.00 0.00 0.00 0.00 0.00 0.00 0.00 0.00 0.00 0.00 0.00 0.00 0.00 0.00 0.00 0.00 0.00 0.00 0.00 0.00 0.00 0.00 0.00 0.00 0.00 0.00 0.00 0.00 0.00 0.00 0.00 0.00 0.00 0.00 0.00 0.00 0.00 0.00 0.00 0.00 0.00 0.00
MSLP
1015.48 1015.86 1016.27 1016.68 1017.10 1017.52 1017.97 1018.45 1018.97 1019.55 1020.16 1020.77 1021.37 1021.91 1022.38 1022.77 1023.07 1023.30 1023.49 1023.65 1023.82 1023.99 1024.18 1024.38 1024.57 1024.73 1024.85 1024.92 1024.93 1024.89 1024.79 1024.65 1024.44 1024.19 1023.87 1023.48 1023.02 1022.49 1021.91 1021.30 1020.67 1020.05 1019.48
1016.89 1017.21 1017.55 1017.88 1018.21 1018.56 1018.93 1019.37 1019.85 1020.40 1020.98 1021.58 1022.15 1022.67 1023.11 1023.46 1023.72 1023.91 1024.03 1024.13 1024.21 1024.30 1024.39 1024.49 1024.58 1024.66 1024.71 1024.73 1024.72 1024.66 1024.56 1024.42 1024.22 1023.96 1023.63 1023.22 1022.72 1022.14 1021.51 1020.83 1020.15 1019.49 1018.87
1018.32 1018.63 1018.92 1019.20 1019.46 1019.74 1020.06 1020.43 1020.86 1021.36 1021.90 1022.45 1022.99 1023.46 1023.86 1024.17 1024.38 1024.51 1024.57 1024.59 1024.59 1024.59 1024.58 1024.58 1024.58 1024.57 1024.55 1024.52 1024.46 1024.38 1024.27 1024.13 1023.93 1023.66 1023.32 1022.88 1022.36 1021.74 1021.07 1020.36 1019.64 1018.95 1018.31
1019.68 1020.00 1020.27 1020.51 1020.73 1020.95 1021.21 1021.53 1021.90 1022.34 1022.82 1023.32 1023.80 1024.22 1024.57 1024.82 1024.98 1025.06 1025.06 1025.02 1024.95 1024.86 1024.77 1024.68 1024.59 1024.50 1024.41 1024.31 1024.21 1024.09 1023.96 1023.80 1023.59 1023.31 1022.96 1022.51 1021.97 1021.34 1020.64 1019.91 1019.18 1018.48 1017.83
1020.90 1021.23 1021.50 1021.71 1021.89 1022.07 1022.28 1022.54 1022.86 1023.24 1023.65 1024.09 1024.50 1024.87 1025.16 1025.37 1025.48 1025.51 1025.48 1025.39 1025.26 1025.12 1024.96 1024.80 1024.63 1024.46 1024.29 1024.13 1023.97 1023.81 1023.64 1023.44 1023.21 1022.92 1022.56 1022.10 1021.55 1020.93 1020.24 1019.51 1018.78 1018.08 1017.44
1021.93 1022.26 1022.52 1022.71 1022.87 1023.01 1023.17 1023.38 1023.64 1023.96 1024.32 1024.69 1025.05 1025.36 1025.60 1025.77 1025.85 1025.85 1025.79 1025.68 1025.52 1025.34 1025.13 1024.91 1024.68 1024.44 1024.20 1023.96 1023.73 1023.51 1023.28 1023.05 1022.79 1022.48 1022.10 1021.65 1021.12 1020.51 1019.84 1019.14 1018.44 1017.76 1017.12
1022.77 1023.09 1023.32 1023.49 1023.61 1023.71 1023.84 1024.01 1024.22 1024.49 1024.80 1025.12 1025.42 1025.68 1025.89 1026.02 1026.08 1026.07 1026.00 1025.87 1025.70 1025.50 1025.26 1025.00 1024.71 1024.41 1024.09 1023.78 1023.47 1023.17 1022.88 1022.60 1022.30 1021.97 1021.59 1021.16 1020.65 1020.08 1019.46 1018.80 1018.14 1017.49 1016.87
1023.45 1023.72 1023.91 1024.04 1024.12 1024.20 1024.29 1024.43 1024.61 1024.84 1025.11 1025.38 1025.64 1025.86 1026.04 1026.15 1026.19 1026.18 1026.11 1025.98 1025.81 1025.60 1025.34 1025.04 1024.70 1024.33 1023.94 1023.55 1023.15 1022.78 1022.42 1022.08 1021.74 1021.40 1021.03 1020.62 1020.16 1019.65 1019.08 1018.49 1017.87 1017.26 1016.67
1024.00 1024.21 1024.34 1024.42 1024.47 1024.51 1024.58 1024.70 1024.86 1025.07 1025.30 1025.54 1025.77 1025.97 1026.11 1026.21 1026.24 1026.22 1026.15 1026.03 1025.86 1025.63 1025.35 1025.02 1024.63 1024.20 1023.73 1023.25 1022.78 1022.33 1021.90 1021.51 1021.15 1020.80 1020.45 1020.09 1019.68 1019.23 1018.74 1018.21 1017.65 1017.09 1016.52
1024.45 1024.59 1024.66 1024.69 1024.71 1024.73 1024.79 1024.90 1025.05 1025.25 1025.47 1025.69 1025.89 1026.06 1026.18 1026.25 1026.27 1026.24 1026.17 1026.04 1025.85 1025.61 1025.30 1024.93 1024.49 1024.00 1023.47 1022.91 1022.37 1021.85 1021.37 1020.94 1020.57 1020.23 1019.91 1019.59 1019.25 1018.88 1018.46 1018.00 1017.49 1016.96 1016.42
1024.84 1024.90 1024.91 1024.91 1024.90 1024.92 1024.98 1025.09 1025.25 1025.45 1025.66 1025.87 1026.05 1026.20 1026.29 1026.33 1026.33 1026.27 1026.17 1026.02 1025.81 1025.55 1025.21 1024.79 1024.30 1023.76 1023.16 1022.55 1021.95 1021.38 1020.87 1020.42 1020.05 1019.73 1019.45 1019.19 1018.92 1018.61 1018.26 1017.86 1017.41 1016.90 1016.37
1025.13 1025.14 1025.11 1025.08 1025.07 1025.10 1025.18 1025.32 1025.50 1025.71 1025.92 1026.12 1026.28 1026.40 1026.45 1026.46 1026.42 1026.33 1026.19 1026.00 1025.75 1025.44 1025.06 1024.61 1024.08 1023.49 1022.85 1022.20 1021.57 1020.97 1020.45 1020.01 1019.64 1019.36 1019.12 1018.91 1018.70 1018.45 1018.16 1017.80 1017.38 1016.89 1016.36
1025.33 1025.30 1025.25 1025.22 1025.23 1025.29 1025.40 1025.57 1025.78 1026.00 1026.22 1026.41 1026.55 1026.63 1026.65 1026.62 1026.52 1026.38 1026.19 1025.95 1025.66 1025.31 1024.89 1024.39 1023.83 1023.21 1022.56 1021.89 1021.25 1020.66 1020.14 1019.72 1019.38 1019.12 1018.93 1018.76 1018.59 1018.38 1018.12 1017.79 1017.38 1016.91 1016.37
1025.39 1025.35 1025.31 1025.30 1025.35 1025.45 1025.60 1025.81 1026.05 1026.29 1026.52 1026.70 1026.82 1026.86 1026.84 1026.75 1026.60 1026.41 1026.16 1025.87 1025.53 1025.13 1024.68 1024.16 1023.58 1022.95 1022.30 1021.65 1021.02 1020.45 1019.96 1019.56 1019.25 1019.02 1018.85 1018.70 1018.55 1018.36 1018.11 1017.79 1017.38 1016.91 1016.37
1025.32 1025.29 1025.28 1025.31 1025.39 1025.54 1025.75 1025.99 1026.26 1026.52 1026.75 1026.92 1027.01 1027.02 1026.96 1026.82 1026.62 1026.37 1026.07 1025.73 1025.35 1024.92 1024.44 1023.91 1023.34 1022.73 1022.10 1021.48 1020.89 1020.36 1019.90 1019.53 1019.24 1019.02 1018.85 1018.70 1018.54 1018.33 1018.07 1017.74 1017.32 1016.84 1016.30
1025.12 1025.11 1025.14 1025.21 1025.35 1025.55 1025.79 1026.07 1026.36 1026.63 1026.86 1027.01 1027.09 1027.07 1026.97 1026.79 1026.54 1026.25 1025.91 1025.54 1025.13 1024.69 1024.21 1023.69 1023.13 1022.56 1021.97 1021.40 1020.85 1020.36 1019.94 1019.58 1019.30 1019.07 1018.88 1018.69 1018.49 1018.25 1017.96 1017.59 1017.17 1016.68 1016.15
1024.84 1024.86 1024.93 1025.05 1025.23 1025.46 1025.74 1026.04 1026.34 1026.61 1026.83 1026.97 1027.02 1026.98 1026.86 1026.65 1026.39 1026.07 1025.71 1025.32 1024.91 1024.46 1024.00 1023.50 1022.99 1022.45 1021.92 1021.40 1020.90 1020.44 1020.04 1019.69 1019.39 1019.13 1018.89 1018.65 1018.39 1018.09 1017.75 1017.35 1016.90 1016.42 1015.91
1024.55 1024.60 1024.70 1024.85 1025.05 1025.31 1025.60 1025.90 1026.20 1026.47 1026.67 1026.80 1026.84 1026.79 1026.66 1026.45 1026.18 1025.86 1025.50 1025.12 1024.72 1024.29 1023.85 1023.40 1022.93 1022.44 1021.96 1021.48 1021.02 1020.59 1020.19 1019.83 1019.49 1019.18 1018.88 1018.56 1018.23 1017.86 1017.46 1017.03 1016.57 1016.10 1015.63
1024.32 1024.38 1024.50 1024.66 1024.87 1025.13 1025.42 1025.72 1026.00 1026.25 1026.45 1026.57 1026.61 1026.56 1026.43 1026.24 1025.98 1025.68 1025.35 1024.99 1024.61 1024.22 1023.81 1023.40 1022.97 1022.53 1022.09 1021.64 1021.21 1020.79 1020.38 1019.98 1019.60 1019.22 1018.84 1018.44 1018.03 1017.60 1017.14 1016.68 1016.22 1015.77 1015.35
1024.19 1024.26 1024.38 1024.54 1024.74 1024.99 1025.26 1025.53 1025.80 1026.03 1026.21 1026.33 1026.37 1026.34 1026.23 1026.07 1025.84 1025.58 1025.28 1024.96 1024.62 1024.26 1023.89 1023.51 1023.12 1022.72 1022.30 1021.88 1021.45 1021.02 1020.59 1020.15 1019.71 1019.26 1018.80 1018.33 1017.84 1017.35 1016.86 1016.39 1015.94 1015.52 1015.15
1024.21 1024.27 1024.37 1024.51 1024.70 1024.91 1025.15 1025.40 1025.63 1025.85 1026.02 1026.13 1026.19 1026.18 1026.11 1025.98 1025.80 1025.58 1025.33 1025.05 1024.75 1024.43 1024.09 1023.74 1023.37 1022.98 1022.58 1022.16 1021.73 1021.28 1020.81 1020.33 1019.83 1019.32 1018.79 1018.26 1017.72 1017.19 1016.68 1016.21 1015.78 1015.40 1015.09
1024.34 1024.38 1024.46 1024.58 1024.74 1024.92 1025.13 1025.34 1025.55 1025.75 1025.91 1026.03 1026.11 1026.12 1026.09 1026.01 1025.87 1025.70 1025.49 1025.25 1024.98 1024.69 1024.37 1024.04 1023.68 1023.30 1022.89 1022.47 1022.01 1021.54 1021.04 1020.51 1019.97 1019.41 1018.84 1018.26 1017.69 1017.15 1016.64 1016.19 1015.79 1015.46 1015.20
1024.55 1024.58 1024.64 1024.74 1024.86 1025.02 1025.19 1025.38 1025.57 1025.75 1025.90 1026.03 1026.12 1026.17 1026.17 1026.12 1026.03 1025.90 1025.73 1025.52 1025.28 1025.01 1024.70 1024.37 1024.01 1023.62 1023.21 1022.76 1022.29 1021.79 1021.26 1020.70 1020.13 1019.54 1018.94 1018.35 1017.79 1017.25 1016.77 1016.35 1015.99 1015.71 1015.51
1024.78 1024.80 1024.85 1024.93 1025.04 1025.17 1025.32 1025.49 1025.66 1025.83 1025.98 1026.11 1026.22 1026.29 1026.32 1026.30 1026.25 1026.15 1026.01 1025.82 1025.60 1025.33 1025.03 1024.70 1024.33 1023.93 1023.50 1023.04 1022.54 1022.02 1021.47 1020.90 1020.31 1019.71 1019.12 1018.54 1017.99 1017.49 1017.04 1016.67 1016.36 1016.14 1015.98
1024.99 1025.01 1025.06 1025.13 1025.23 1025.36 1025.50 1025.65 1025.81 1025.97 1026.12 1026.25 1026.37 1026.45 1026.50 1026.52 1026.49 1026.41 1026.29 1026.12 1025.91 1025.65 1025.35 1025.01 1024.63 1024.22 1023.77 1023.29 1022.78 1022.25 1021.69 1021.11 1020.52 1019.94 1019.36 1018.81 1018.30 1017.84 1017.44 1017.11 1016.86 1016.68 1016.57
1025.14 1025.18 1025.24 1025.32 1025.43 1025.55 1025.69 1025.84 1025.99 1026.15 1026.30 1026.43 1026.55 1026.65 1026.71 1026.74 1026.73 1026.67 1026.56 1026.41 1026.20 1025.95 1025.65 1025.31 1024.92 1024.50 1024.04 1023.55 1023.04 1022.50 1021.94 1021.37 1020.79 1020.23 1019.68 1019.16 1018.69 1018.27 1017.92 1017.64 1017.44 1017.30 1017.22
Thickness
5663 5660 5655 5650 5645 5641 5636 5630 5625 5619 5614 5609 5605 5600 5595 5590 5585 5580 5575 5571 5566 5561 5557 5552 5547 5542 5537 5531 5526 5520 5513 5507 5501 5496 5491 5488 5483 5479 5475 5471 5466 5463 5460
5646 5642 5637 5632 5628 5623 5618 5613 5608 5603 5599 5594 5589 5583 5577 5571 5567 5562 5558 5554 5549 5545 5541 5537 5532 5528 5523 5517 5512 5506 5499 5493 5487 5482 5478 5473 5469 5465 5462 5457 5454 5451 5449
5628 5624 5619 5614 5610 5605 5600 5595 5591 5587 5582 5577 5571 5564 5558 5553 5549 5545 5541 5536 5533 5529 5526 5522 5518 5514 5509 5504 5498 5492 5486 5481 5474 5468 5466 5461 5458 5455 5451 5448 5445 5441 5439
5610 5605 5601 5596 5591 5586 5582 5578 5574 5569 5564 5558 5551 5545 5540 5536 5531 5528 5524 5520 5517 5514 5511 5508 5505 5501 5496 5491 5485 5479 5473 5467 5461 5457 5454 5451 5448 5446 5441 5438 5437 5434 5431
5590 5586 5582 5577 5573 5569 5564 5560 5556 5551 5545 5539 5533 5527 5523 5519 5514 5511 5508 5505 5501 5499 5497 5494 5492 5490 5486 5480 5475 5468 5462 5456 5451 5448 5445 5444 5442 5439 5435 5432 5430 5429 5426
5571 5566 5562 5559 5555 5551 5546 5542 5537 5533 5527 5522 5516 5510 5506 5502 5497 5495 5492 5489 5486 5484 5482 5481 5479 5476 5472 5468 5464 5459 5455 5450 5446 5442 5440 5438 5437 5434 5432 5428 5425 5422 5422
5554 5549 5545 5541 5537 5533 5529 5524 5519 5514 5509 5504 5498 5493 5489 5485 5482 5480 5478 5475 5472 5470 5468 5467 5466 5464 5460 5456 5452 5449 5446 5444 5442 5439 5436 5435 5434 5432 5429 5426 5421 5417 5414
5537 5533 5528 5524 5520 5515 5512 5507 5502 5497 5493 5487 5482 5478 5474 5471 5467 5465 5463 5460 5458 5457 5455 5455 5453 5452 5450 5446 5443 5441 5440 5440 5439 5438 5435 5434 5433 5430 5426 5422 5418 5415 5413
5522 5518 5513 5509 5504 5499 5494 5490 5486 5482 5477 5473 5468 5463 5459 5456 5453 5450 5448 5445 5443 5443 5443 5444 5443 5442 5441 5439 5436 5434 5435 5438 5440 5439 5437 5435 5433 5431 5427 5422 5418 5415 5414
5507 5503 5498 5493 5488 5484 5479 5474 5470 5466 5462 5459 5454 5450 5446 5442 5440 5437 5434 5432 5429 5430 5431 5432 5433 5433 5434 5434 5432 5430 5431 5436 5438 5438 5438 5437 5434 5431 5428 5423 5418 5415 5413
5492 5488 5483 5478 5472 5468 5464 5459 5455 5451 5447 5443 5440 5436 5432 5429 5426 5423 5421 5419 5418 5418 5419 5421 5424 5427 5429 5431 5432 5432 5433 5436 5437 5437 5436 5435 5433 5431 5428 5425 5420 5416 5413
5479 5474 5469 5464 5460 5455 5449 5444 5440 5436 5431 5427 5424 5421 5417 5415 5412 5409 5408 5408 5408 5408 5410 5413 5418 5422 5426 5430 5433 5436 5437 5438 5438 5437 5436 5434 5431 5429 5428 5426 5423 5420 5416
5467 5461 5456 5452 5446 5441 5436 5431 5426 5421 5417 5413 5409 5405 5402 5400 5398 5397 5397 5398 5399 5400 5404 5409 5414 5420 5425 5429 5434 5437 5438 5439 5438 5436 5434 5432 5431 5429 5428 5426 5425 5422 5420
5457 5451 5445 5439 5434 5429 5424 5419 5414 5409 5405 5401 5398 5393 5390 5388 5386 5386 5387 5389 5392 5396 5400 5406 5413 5419 5424 5429 5433 5437 5438 5438 5437 5436 5434 5432 5431 5429 5427 5425 5422 5420 5418
5447 5441 5435 5430 5424 5418 5413 5408 5404 5401 5398 5393 5389 5385 5382 5380 5379 5380 5381 5384 5388 5392 5398 5404 5411 5417 5423 5428 5432 5436 5438 5438 5438 5436 5434 5432 5430 5428 5426 5425 5422 5419 5416
5440 5434 5427 5422 5417 5411 5405 5399 5396 5394 5391 5389 5386 5382 5379 5377 5377 5378 5381 5385 5390 5395 5399 5404 5410 5416 5421 5425 5429 5433 5436 5438 5438 5437 5435 5433 5431 5428 5427 5425 5422 5419 5417
5435 5430 5424 5419 5414 5408 5402 5396 5391 5387 5386 5385 5383 5381 5379 5378 5378 5380 5383 5388 5393 5398 5402 5406 5411 5417 5422 5426 5430 5433 5435 5438 5438 5437 5436 5434 5433 5431 5428 5426 5424 5421 5418
5436 5431 5425 5419 5414 5409 5403 5398 5392 5387 5384 5383 5382 5381 5380 5380 5381 5383 5387 5391 5395 5400 5404 5408 5414 5419 5424 5428 5432 5435 5437 5439 5439 5439 5438 5437 5435 5433 5431 5428 5425 5422 5419
5436 5431 5426 5421 5416 5411 5406 5400 5395 5390 5386 5384 5383 5383 5384 5384 5385 5388 5391 5393 5397 5402 5408 5413 5418 5423 5427 5431 5434 5436 5438 5439 5439 5439 5439 5439 5438 5435 5433 5431 5428 5426 5422
5437 5434 5429 5423 5418 5413 5407 5402 5397 5393 5389 5387 5386 5386 5387 5388 5389 5391 5395 5398 5402 5407 5412 5417 5422 5426 5429 5433 5435 5437 5438 5439 5439 5439 5440 5440 5440 5439 5437 5435 5431 5428 5425
5438 5434 5431 5425 5420 5415 5410 5405 5401 5397 5394 5392 5391 5391 5391 5392 5393 5395 5399 5403 5407 5411 5416 5420 5424 5428 5431 5433 5435 5437 5438 5439 5439 5439 5440 5441 5442 5442 5441 5438 5436 5433 5430
5440 5435 5431 5426 5422 5417 5413 5409 5406 5402 5400 5398 5396 5396 5397 5397 5398 5400 5404 5408 5412 5416 5419 5423 5426 5428 5431 5433 5434 5436 5437 5438 5439 5440 5441 5443 5444 5444 5443 5441 5439 5436 5433
5441 5437 5432 5428 5424 5421 5417 5413 5410 5407 5405 5403 5402 5401 5401 5402 5403 5406 5409 5412 5416 5419 5423 5425 5427 5430 5432 5434 5435 5436 5436 5437 5439 5440 5441 5443 5445 5446 5445 5443 5441 5438 5435
5442 5438 5434 5430 5426 5423 5419 5416 5413 5411 5409 5407 5406 5406 5406 5406 5408 5410 5413 5416 5419 5421 5424 5426 5428 5430 5432 5435 5437 5438 5439 5441 5443 5445 5446 5446 5447 5448 5447 5445 5442 5440 5436
5441 5438 5435 5432 5428 5424 5421 5418 5416 5414 5412 5411 5410 5409 5409 5410 5412 5414 5416 5418 5420 5422 5424 5426 5429 5431 5433 5435 5437 5440 5443 5446 5448 5449 5449 5450 5449 5449 5447 5446 5443 5440 5437
5442 5439 5436 5432 5429 5426 5422 5419 5417 5415 5414 5413 5412 5412 5412 5413 5414 5416 5418 5419 5421 5422 5424 5426 5428 5430 5433 5436 5438 5441 5445 5448 5450 5451 5451 5450 5449 5448 5447 5445 5443 5440 5437